Regional Weather Roundup
Issued by NWS

Home | Current Version | Previous Version | Text Only | Print | Product List | Glossary On
Versions: 1 2 3 4 5 6 7 8 9 10 11 12 13 14 15 16 17 18 19 20 21 22 23 24 25 26 27 28 29 30 31 32 33 34 35 36 37 38 39 40 41 42 43 44 45 46 47 48 49 50
000
ASUS43 KFSD 261710
RWRSD

WEATHER ROUNDUP FOR SOUTH DAKOTA
NATIONAL WEATHER SERVICE SIOUX FALLS SD
1100 AM CST SUN FEB 26 2017

NOTE: "FAIR" INDICATES FEW OR NO CLOUDS BELOW 12,000 FEET WITH NO
SIGNIFICANT WEATHER AND/OR OBSTRUCTIONS TO VISIBILITY.


SDZ001>005-009-010-012>017-261800-
NORTHWEST AND NORTH CENTRAL SOUTH DAKOTA

CITY           SKY/WX    TMP DP  RH WIND       PRES   REMARKS
BUFFALO          N/A     31  21  66 W22G30    29.65R WCI  18
FAITH            N/A     34  19  54 W17       29.75R WCI  23
MOBRIDGE       PTSUNNY   23  17  78 S9        29.77R WCI  13
$$

SDZ012>016-024>037-041>051-057-063-072>074-261800-
SOUTHWEST AND SOUTH CENTRAL SOUTH DAKOTA

CITY           SKY/WX    TMP DP  RH WIND       PRES   REMARKS
RAPID CTY ARPT SUNNY     34  12  40 W5        29.77F WCI  30
PIERRE         SUNNY     31  18  58 W12       29.81S WCI  22
CUSTER         SUNNY     23   4  44 W10       29.70R WCI  12
ELLSWORTH AFB  MOSUNNY   34  14  43 W6        29.76S WCI  28
PHILIP         SUNNY     36  18  48 W13       29.81S
PINE RIDGE     SUNNY     23   7  50 SW13      29.85R WCI  11
SPEARFISH      FAIR      30  12  47 W18G28    29.74S WCI  18
WINNER         FAIR      32  17  54 W10       29.85R WCI  24
$$

SDZ004>011-016>023-039-040-261800-
NORTHEAST SOUTH DAKOTA

CITY           SKY/WX    TMP DP  RH WIND       PRES   REMARKS
ABERDEEN       PTSUNNY   21  15  78 E6        29.84S WCI  13
WATERTOWN      SUNNY     28  18  66 N9        29.80R WCI  19
BROOKINGS      SUNNY     31  22  69 NW8       29.81R WCI  23
SISSETON         N/A     20  14  77 N9        29.85R WCI   9
$$

SDZ017-020-022-023-036>040-048>070-261800-
SOUTHEAST SOUTH DAKOTA

CITY           SKY/WX    TMP DP  RH WIND       PRES   REMARKS
SIOUX FALLS    SUNNY     30  23  75 W8        29.86R WCI  22
HURON          SUNNY     30  20  66 VRB5      29.85R WCI  25
CHAMBERLAIN    SUNNY     34  20  56 W8        29.85R WCI  28
MITCHELL       SUNNY     33  24  69 CALM      29.87R
YANKTON        SUNNY     28  18  64 W12       29.90R WCI  18
$$

ABBREVIATIONS USED IN REMARKS
   TC - TEMPERATURE IN CELSIUS
  WCI - WIND CHILL INDEX
   HX - HEAT INDEX
  VSB - VISIBILITY




USA.gov is the U.S. government's official web portal to all federal, state and local government web resources and services.